Qianfan 05-06

operational
NORAD ID: 63164 Int'l Des: 2025-046 Owner: YUANX Country: CN Constellation: qianfan
LEOCIRCULARPOLAR

Über Qianfan 05-06

Beschreibung wird geladen...

Live-Position

3D-Globus wird geladen...

Nächste Überflüge

Höhenverlauf

Altitude vs Time

uPlot chart will show altitude changes over time

Zweizeiliger Elementsatz

1 63164U 25046F 25304.24853715 .00000034 00000-0 33886-4 0 9995
2 63164 88.9767 324.3920 0013183 249.9381 110.0351 13.50974151 41699
Epoch: 31. Okt. 2025 • Age: 7 hours

Aktueller Status

Höhe 1082.9 km
Geschwindigkeit 7.31 km/s
Subsatellitenpunkt -48.09°S, 90.58°E
Startdatum 11. März 2025
Alter 0.6 years
Typ internet

Technische Details

Klassifizierung Payload
Masse 267.00 kg
Trockenmasse 267.00 kg
Gesamtmasse 267.00 kg
Länge 0.30 m
Durchmesser 3.00 m
Spannweite 10.00 m
Form Box+pan
Hersteller GESIH
Bus-Typ Qianfan
Phasenstatus In Orbit
Besitzer/Staat YUANX/CN

Große Konstellationen

Loading constellations...